Location: ????????
(55.3939°N, 37.4780°E)
Time: 15:00:48
(UTC+00:00)

Cosmos 292 Rocket - Pass Details

Date: 14 April 2026
Orbit: 662 x 682 km, 74.0° (Epoch: 17 May)

Event Time Altitude Azimuth Distance (km) Brightness Sun altitude
Rises 22:11:14 0° 331° (NNW) 3,058 7.9 -24.4°
Reaches altitude 10° 22:13:33 10° 331° (NNW) 2,138 6.9 -24.3°
Maximum altitude 22:18:22 85° 245° (WSW) 693 3.6 -24.2°
Enters shadow 22:18:37 80° 181° (S) 700 3.6 -24.2°
